Regional Weather Roundup
Issued by NWS

Home | Current Version | Previous Version | Graphics & Text | Print | Product List | Glossary On
Versions: 1 2 3 4 5 6 7 8 9 10 11 12 13 14 15 16 17 18 19 20 21 22 23 24 25 26 27 28 29 30 31 32 33 34 35 36 37 38 39 40 41 42 43 44 45 46 47 48 49 50
000
ASUS43 KDTX 022201
RWRMI
MICHIGAN HOURLY REGIONAL WEATHER ROUNDUP
NATIONAL WEATHER SERVICE DETROIT/PONTIAC MI
600 PM EDT THU JUL 02 2015

NOTE: "FAIR" INDICATES FEW OR NO CLOUDS BELOW 12,000 FEET WITH NO
SIGNIFICANT WEATHER AND/OR OBSTRUCTION TO VISIBILITY.

MIZ047>049-052>055-059>063-066>070-074>076-081>083-022300-
SOUTHEAST LOWER MICHIGAN

CITY           SKY/WX    TMP DP  RH WIND       PRES   REMARKS
ADRIAN         MOSUNNY   74  54  49 NE8       29.97F
ALMA           SUNNY     71  47  43 E9        30.01S
ANN ARBOR      MOSUNNY   74  53  48 NE10      29.97F
BAD AXE        SUNNY     67  47  49 NE7       30.02F
CARO           SUNNY     70  52  52 N7        30.00S
DETROIT CITY   SUNNY     70  49  47 E12       29.98F
DETROIT        MOSUNNY   72  51  47 NE10G17   29.97S
FLINT          CLOUDY    73  51  46 NE9       29.99F
GROSSE ILE     SUNNY     72  54  53 NE9       29.96S
HILLSDALE      PTSUNNY   73  53  49 E7        29.98S
HOWELL         MOSUNNY   69  51  52 CALM      29.99S

CITY           SKY/WX    TMP DP  RH WIND       PRES   REMARKS
JACKSON        MOSUNNY   70  52  52 NE8       29.99R
LAMBERTVILLE   SUNNY     72  55  54 E3        29.98S
LANSING        MOSUNNY   71  51  49 NE7       30.00S
LAPEER         PTSUNNY   69  48  47 E5        30.00S
MASON          MOSUNNY   68  52  55 E3        29.99S
MONROE         SUNNY     71  58  62 E6        29.96S
MT. CLEMENS    MOSUNNY   70  47  44 NE13      29.97F
PONTIAC        PTSUNNY   70  51  51 N6        29.98S
PORT HOPE        N/A     62  53  72 N6        30.02F
PORT HURON     SUNNY     66  48  52 NE9       30.01S
TRI CITIES     SUNNY     72  47  40 N9        30.02F
MIDLAND        FAIR      70  48  44 E6        30.01S
TROY           MOSUNNY   72  49  45 NE9       30.00S
SAGINAW HB     SUNNY     70  45  40 NE10      30.01S
$$
MIZ043>046-050>051-056>058-064>065-071>073-077>080-022300-
SOUTHWEST LOWER MICHIGAN

CITY           SKY/WX    TMP DP  RH WIND       PRES   REMARKS
BATTLE CREEK   MOSUNNY   75  53  46 NE10G16   29.99S
BENTON HARBOR  MOSUNNY   66  57  72 VRB5      29.98R
BIG RAPIDS     MOSUNNY   72  41  32 E6        30.00S
COLDWATER      MOSUNNY   71  52  50 NE8       29.97S
FREMONT        FAIR      73  44  35 CALM      29.99S
HOLLAND        MOSUNNY   70  53  54 NW10      29.99F
GRAND RAPIDS   MOSUNNY   72  51  47 E7        30.00R
IONIA          FAIR      69  53  55 E3        29.99S
KALAMAZOO      MOSUNNY   75  53  46 VRB5      29.98S
LUDINGTON      SUNNY     71  51  49 N10       30.00S
MARSHALL       MOSUNNY   72  53  50 NE6       29.98S
MOUNT PLEASANT MOSUNNY   72  49  43 E5        30.00S
MUSKEGON       MOSUNNY   71  52  50 NW8       29.99
SOUTH HAVEN    MOSUNNY   67  56  67 N12       29.98S
$$
MIZ016>042-022300-
NORTHERN LOWER MICHIGAN

CITY           SKY/WX    TMP DP  RH WIND       PRES   REMARKS
ALPENA         SUNNY     71  36  27 SE5       30.02
BEAVER ISLAND  SUNNY     67  43  42 W8        30.03S
BELLAIRE       SUNNY     73  48  41 NW3       30.01R
CADILLAC       SUNNY     73  45  36 E6        30.00F
CHARLEVOIX     SUNNY     67  44  43 NW9       30.06S
FRANKFORT      SUNNY     70  39  33 N12       30.01F
GAYLORD        MOSUNNY   71  42  35 NE7       30.02S
GRAYLING       SUNNY     73  44  35 N6        30.01F
HARBOR SPRINGS SUNNY     67  53  60 S3        30.02S
HOUGHTON LAKE  SUNNY     73  42  32 NE10      30.01F
MANISTEE       SUNNY     68  48  49 NW8       30.00S
OSCODA         SUNNY     69  38  32 E7        30.02F
PELLSTON       CLOUDY    73  49  42 W10       30.01F
ROGERS CITY    SUNNY     72  43  35 N3        30.02F
TRAVERSE CITY  MOSUNNY   71  48  43 NE12      30.00S
$$
MIZ007>008-015-022300-
EASTERN UPPER MICHIGAN

CITY           SKY/WX    TMP DP  RH WIND       PRES   REMARKS
KINROSS        SUNNY     70  45  40 N6        30.00F
MACKINAC ISLAN SUNNY     69  48  47 W7        30.01F
NEWBERRY       CLOUDY    71  53  54 SW3       30.00S
S. S. MARIE    SUNNY     70  46  42 NW8       30.00F
MUNISING         N/A     67  52  58 NW3       29.98F
$$
MIZ004>006-011>014-085-022300-
CENTRAL UPPER MICHIGAN

CITY           SKY/WX    TMP DP  RH WIND       PRES   REMARKS
MANISTIQUE     MOSUNNY   64  47  53 S8        30.02F
ESCANABA       SUNNY     70  48  46 S8        30.01F
MENOMINEE      SUNNY     70  46  43 S8        30.01F
SAWYER-GWINN   PTSUNNY   75  48  38 SW10      29.99F
$$
MIZ001>003-009>011-084-022300-
WESTERN UPPER MICHIGAN

CITY           SKY/WX    TMP DP  RH WIND       PRES   REMARKS
IRON MOUNTAIN  SUNNY     75  50  41 S6        29.99F
HOUGHTON       MOSUNNY   74  55  51 W10       29.96F
COPPER HARBOR    N/A     65  49  56 CALM      29.96F
IRONWOOD       SUNNY     75  55  50 W6        29.95F
$$

ABBREVIATIONS USED IN REMARKS
   TC - TEMPERATURE IN CELSIUS
  WCI - WIND CHILL INDEX
   HX - HEAT INDEX
  VSB - VISIBILITY




USA.gov is the U.S. government's official web portal to all federal, state and local government web resources and services.